Location: Nirvana
(45.0297°N, 77.2628°W)
Time: 09:55:21
(UTC-05:00)

OTV 5 (USA 277) - Visible Passes

Search period start: 18 February 2019 00:00
Search period end: 28 February 2019 00:00
Orbit: 342 x 346 km, 54.5° (Epoch: 17 February)

Date Brightness Start Highest point End Pass type
(mag) Time Alt. Az. Time Alt. Az. Time Alt. Az.
22 Feb ? 19:20:04 10° S 19:20:40 14° S 19:20:40 14° S visible
23 Feb ? 19:42:56 10° SW 19:44:19 25° SW 19:44:19 25° SW visible
24 Feb ? 18:32:34 10° S 18:34:45 20° SE 18:36:21 13° E visible
24 Feb ? 20:06:43 10° WSW 20:07:49 20° W 20:07:49 20° W visible
25 Feb ? 18:55:23 10° SW 18:58:14 63° SE 18:59:43 25° ENE visible
25 Feb ? 20:31:03 10° WNW 20:31:10 11° WNW 20:31:10 11° WNW visible
26 Feb ? 19:19:08 10° WSW 19:21:55 43° NNW 19:22:58 29° NNE visible
27 Feb ? 19:43:27 10° WNW 19:45:47 22° NNW 19:46:06 21° N visible
